When you browse on this site, cookies collect data to enhance your experience and personalize the content and advertising you see.
Visit our Privacy Policy to learn more. By continuing to use the site, you agree to this use of cookies and data.
  • In Spain
  • List of Countries
  • For 7 days
  • Water Temperature
  • Weather Map
  • Weather Widgets
  • user-avatar
    Login

    Hourly Weather Siva

    Today, 4 April, Saturday

    Time Temperature Precipitation Wind Pressure Humidity
    00:00 +26°C° 0 mm 7 mps 752 mmHg 18%
    01:00 +26°C° 0 mm 7 mps 751 mmHg 18%
    02:00 +24°C° 0 mm 7 mps 751 mmHg 19%
    03:00 +24°C° 0 mm 7 mps 751 mmHg 20%
    04:00 +23°C° 0 mm 7 mps 750 mmHg 20%
    05:00 +23°C° 0 mm 8 mps 750 mmHg 21%
    06:00 +24°C° 0 mm 9 mps 750 mmHg 20%
    07:00 +24°C° 0 mm 9 mps 750 mmHg 19%
    08:00 +26°C° 0 mm 10 mps 749 mmHg 18%
    09:00 +28°C° 0 mm 11 mps 749 mmHg 15%
    10:00 +32°C° 0 mm 11 mps 749 mmHg 13%
    11:00 +34°C° 0 mm 12 mps 749 mmHg 11%
    12:00 +38°C° 0 mm 11 mps 748 mmHg 10%
    13:00 +40°C° 0 mm 10 mps 748 mmHg 9%
    14:00 +43°C° 0 mm 10 mps 747 mmHg 8%
    15:00 +40°C° 0 mm 10 mps 747 mmHg 10%
    16:00 +38°C° 0 mm 11 mps 747 mmHg 12%
    17:00 +36°C° 0 mm 12 mps 747 mmHg 15%
    18:00 +33°C° 0 mm 11 mps 748 mmHg 19%
    19:00 +32°C° 0 mm 10 mps 749 mmHg 24%
    20:00 +29°C° 0 mm 9 mps 750 mmHg 28%
    21:00 +27°C° 0 mm 10 mps 750 mmHg 29%
    22:00 +26°C° 0 mm 11 mps 751 mmHg 29%
    23:00 +23°C° 0 mm 11 mps 752 mmHg 30%

    Tomorrow, 5 April, Sunday

    Time Temperature Precipitation Wind Pressure Humidity
    00:00 +22°C° 0 mm 10 mps 752 mmHg 36%
    01:00 +21°C° 0 mm 9 mps 752 mmHg 42%
    02:00 +20°C° 0 mm 8 mps 753 mmHg 49%
    03:00 +18°C° 0 mm 7 mps 753 mmHg 54%
    04:00 +17°C° 0 mm 7 mps 753 mmHg 60%
    05:00 +17°C° 0 mm 6 mps 753 mmHg 65%
    06:00 +17°C° 0 mm 6 mps 754 mmHg 66%
    07:00 +17°C° 0 mm 6 mps 755 mmHg 67%
    08:00 +17°C° 0 mm 6 mps 755 mmHg 67%
    09:00 +20°C° 0 mm 6 mps 755 mmHg 60%
    10:00 +21°C° 0 mm 6 mps 756 mmHg 52%
    11:00 +22°C° 0 mm 6 mps 756 mmHg 45%
    12:00 +23°C° 0 mm 6 mps 756 mmHg 39%
    13:00 +26°C° 0 mm 6 mps 756 mmHg 32%
    14:00 +27°C° 0 mm 7 mps 755 mmHg 26%
    15:00 +27°C° 0 mm 6 mps 755 mmHg 25%
    16:00 +26°C° 0 mm 6 mps 755 mmHg 24%
    17:00 +26°C° 0 mm 6 mps 755 mmHg 24%
    18:00 +26°C° 0 mm 5 mps 755 mmHg 25%
    19:00 +25°C° 0 mm 4 mps 756 mmHg 26%
    20:00 +24°C° 0 mm 3 mps 756 mmHg 28%
    21:00 +24°C° 0 mm 3 mps 757 mmHg 29%
    22:00 +22°C° 0 mm 3 mps 757 mmHg 30%
    23:00 +22°C° 0 mm 3 mps 758 mmHg 31%

    Day after tomorrow, 6 April, Monday

    Time Temperature Precipitation Wind Pressure Humidity
    00:00 +21°C° 0 mm 3 mps 757 mmHg 34%
    01:00 +20°C° 0 mm 3 mps 757 mmHg 38%
    02:00 +20°C° 0 mm 4 mps 757 mmHg 41%
    03:00 +19°C° 0 mm 3 mps 757 mmHg 47%
    04:00 +18°C° 0 mm 3 mps 757 mmHg 52%
    05:00 +17°C° 0 mm 3 mps 757 mmHg 57%
    06:00 +18°C° 0 mm 3 mps 757 mmHg 56%
    07:00 +18°C° 0 mm 3 mps 758 mmHg 56%
    08:00 +18°C° 0 mm 3 mps 758 mmHg 56%
    09:00 +19°C° 0 mm 2 mps 758 mmHg 51%
    10:00 +21°C° 0 mm 1 mps 759 mmHg 47%
    11:00 +20°C° 0 mm 0 mps 759 mmHg 42%
    12:00 +23°C° 0 mm 1 mps 758 mmHg 36%
    13:00 +25°C° 0 mm 2 mps 758 mmHg 30%
    14:00 +26°C° 0 mm 3 mps 758 mmHg 24%
    15:00 +26°C° 0 mm 4 mps 757 mmHg 22%
    16:00 +26°C° 0 mm 4 mps 757 mmHg 20%
    17:00 +26°C° 0 mm 5 mps 757 mmHg 19%
    18:00 +26°C° 0 mm 4 mps 757 mmHg 20%
    19:00 +25°C° 0 mm 4 mps 757 mmHg 21%
    20:00 +23°C° 0 mm 4 mps 757 mmHg 22%
    21:00 +22°C° 0 mm 4 mps 758 mmHg 22%
    22:00 +22°C° 0 mm 4 mps 758 mmHg 23%
    23:00 +21°C° 0 mm 4 mps 758 mmHg 23%

    7 April, Tuesday

    Time Temperature Precipitation Wind Pressure Humidity
    00:00 +20°C° 0 mm 4 mps 758 mmHg 32%
    01:00 +19°C° 0 mm 3 mps 758 mmHg 41%
    02:00 +18°C° 0 mm 3 mps 758 mmHg 49%
    03:00 +17°C° 0 mm 3 mps 758 mmHg 53%
    04:00 +17°C° 0 mm 2 mps 758 mmHg 56%
    05:00 +16°C° 0 mm 2 mps 758 mmHg 60%
    06:00 +17°C° 0 mm 2 mps 758 mmHg 58%
    07:00 +17°C° 0 mm 2 mps 758 mmHg 56%
    08:00 +17°C° 0 mm 2 mps 758 mmHg 54%
    09:00 +18°C° 0 mm 2 mps 758 mmHg 49%
    10:00 +20°C° 0 mm 1 mps 758 mmHg 45%
    11:00 +22°C° 0 mm 1 mps 759 mmHg 40%
    12:00 +22°C° 0 mm 1 mps 758 mmHg 35%
    13:00 +23°C° 0 mm 2 mps 758 mmHg 31%
    14:00 +24°C° 0 mm 3 mps 757 mmHg 26%
    15:00 +25°C° 0 mm 3 mps 757 mmHg 25%
    16:00 +25°C° 0 mm 4 mps 757 mmHg 24%
    17:00 +25°C° 0 mm 4 mps 756 mmHg 23%
    18:00 +23°C° 0 mm 4 mps 756 mmHg 25%
    19:00 +23°C° 0 mm 4 mps 757 mmHg 26%
    20:00 +22°C° 0 mm 4 mps 757 mmHg 28%
    21:00 +21°C° 0 mm 5 mps 758 mmHg 33%
    22:00 +20°C° 0 mm 6 mps 758 mmHg 38%
    23:00 +18°C° 0 mm 7 mps 758 mmHg 43%

    8 April, Wednesday

    Time Temperature Precipitation Wind Pressure Humidity
    00:00 +17°C° 0 mm 6 mps 758 mmHg 46%
    01:00 +17°C° 0 mm 5 mps 758 mmHg 50%
    02:00 +16°C° 0 mm 5 mps 758 mmHg 53%
    03:00 +15°C° 0 mm 4 mps 758 mmHg 55%
    04:00 +15°C° 0 mm 4 mps 758 mmHg 57%
    05:00 +14°C° 0 mm 4 mps 758 mmHg 60%
    06:00 +14°C° 0 mm 4 mps 758 mmHg 60%
    07:00 +14°C° 0 mm 4 mps 759 mmHg 59%
    08:00 +14°C° 0 mm 4 mps 759 mmHg 59%
    09:00 +15°C° 0 mm 4 mps 759 mmHg 53%
    10:00 +18°C° 0 mm 4 mps 759 mmHg 48%
    11:00 +19°C° 0 mm 4 mps 759 mmHg 42%
    12:00 +20°C° 0 mm 5 mps 758 mmHg 38%
    13:00 +21°C° 0 mm 6 mps 758 mmHg 34%
    14:00 +22°C° 0 mm 7 mps 758 mmHg 30%
    15:00 +22°C° 0 mm 7 mps 757 mmHg 29%
    16:00 +22°C° 0 mm 7 mps 757 mmHg 29%
    17:00 +22°C° 0 mm 7 mps 756 mmHg 28%
    18:00 +21°C° 0 mm 8 mps 757 mmHg 31%
    19:00 +20°C° 0 mm 8 mps 757 mmHg 34%
    20:00 +18°C° 0 mm 8 mps 758 mmHg 37%
    21:00 +17°C° 0 mm 8 mps 758 mmHg 41%
    22:00 +16°C° 0 mm 7 mps 759 mmHg 44%
    23:00 +15°C° 0 mm 7 mps 759 mmHg 48%

    9 April, Thursday

    Time Temperature Precipitation Wind Pressure Humidity
    00:00 +15°C° 0 mm 6 mps 759 mmHg 51%
    01:00 +14°C° 0 mm 6 mps 758 mmHg 55%
    02:00 +14°C° 0 mm 6 mps 758 mmHg 58%
    03:00 +13°C° 0 mm 5 mps 758 mmHg 60%
    04:00 +13°C° 0 mm 5 mps 758 mmHg 63%
    05:00 +12°C° 0 mm 5 mps 758 mmHg 65%
    06:00 +13°C° 0 mm 5 mps 758 mmHg 63%
    07:00 +13°C° 0 mm 6 mps 758 mmHg 62%
    08:00 +13°C° 0 mm 6 mps 758 mmHg 60%
    09:00 +15°C° 0 mm 6 mps 758 mmHg 53%
    10:00 +16°C° 0 mm 7 mps 758 mmHg 46%
    11:00 +17°C° 0 mm 7 mps 758 mmHg 39%
    12:00 +18°C° 0 mm 7 mps 758 mmHg 36%
    13:00 +20°C° 0 mm 7 mps 758 mmHg 33%
    14:00 +21°C° 0 mm 8 mps 757 mmHg 30%
    15:00 +21°C° 0 mm 8 mps 757 mmHg 29%
    16:00 +21°C° 0 mm 7 mps 757 mmHg 29%
    17:00 +21°C° 0 mm 7 mps 757 mmHg 29%
    18:00 +20°C° 0 mm 7 mps 757 mmHg 33%
    19:00 +18°C° 0 mm 7 mps 757 mmHg 36%
    20:00 +17°C° 0 mm 7 mps 757 mmHg 40%
    21:00 +16°C° 0 mm 6 mps 757 mmHg 41%
    22:00 +16°C° 0 mm 6 mps 758 mmHg 43%
    23:00 +15°C° 0 mm 5 mps 758 mmHg 45%
    Show more